User: anonymous   Login
Location: Newark
(10.3333°N, 37.7167°E)
Time: 22:59:24
(UTC+00:00)
Language:

STARLINK-1125 - Orbit

View from above orbital plane
View from above orbital plane
View from above satellite
View from above satellite

Ground track
Ground track

The orbit data is extracted from the following two-line orbital elements,

1 44950C 20001AN  20093.86686992  .00000134  00000-0  91705-5 0   933
2 44950  52.9878 334.0061 0001650  71.7830 318.0945 15.05586802    19
Epoch (UTC): 02 April 2020 20:48:17
Eccentricity: 0.0001650
inclination: 52.9878°
perigee height: 548 km
apogee height: 551 km
right ascension of ascending node: 334.0061°
argument of perigee: 71.7830°
revolutions per day: 15.05586802
mean anomaly at epoch: 318.0945°
orbit number at epoch: 1

The dashed part of the orbit path shows where the satellite is in the earth's shadow,  

DLR